| time (UTC) | temp F | wind direction | speed MPH | gust MPH | rain 1hr in | rain 24hr in | rain mn in | humidity % | barometer mb |
| 20260906130630 | 64 | 292 | 5.0 | 9.0 | 0.00 | 0.00 | 0.00 | 48 | 982.1 |
| 20260906125730 | 64 | 306 | 6.0 | 9.0 | 0.00 | 0.00 | 0.00 | 48 | 982.0 |
| 20260906124830 | 64 | 328 | 7.0 | 11.0 | 0.00 | 0.00 | 0.00 | 49 | 982.0 |
| 20260906123930 | 65 | 319 | 6.0 | 8.0 | 0.00 | 0.00 | 0.00 | 46 | 982.0 |
| 20260906123030 | 66 | 312 | 8.0 | 11.0 | 0.00 | 0.00 | 0.00 | 44 | 982.0 |
| 20260906122130 | 68 | 337 | 3.0 | 4.0 | 0.00 | 0.00 | 0.00 | 46 | 982.1 |
| 20260906121230 | 64 | 13 | 3.0 | 4.0 | 0.00 | 0.00 | 0.00 | 51 | 982.0 |
| 20260906115430 | 64 | 322 | 6.0 | 11.0 | 0.00 | 0.00 | 0.00 | 50 | 981.7 |
| 20260906114530 | 65 | 337 | 8.0 | 11.0 | 0.00 | 0.02 | 0.00 | 46 | 981.7 |
| 20260906112730 | 67 | 249 | 3.0 | 4.0 | 0.00 | 0.02 | 0.00 | 49 | 981.4 |
| 20260906111830 | 66 | 173 | 3.0 | 6.0 | 0.00 | 0.02 | 0.00 | 53 | 981.3 |
| 20260906110930 | 64 | 175 | 3.0 | 4.0 | 0.00 | 0.02 | 0.00 | 54 | 981.3 |
| 20260906110030 | 63 | 197 | 5.0 | 7.0 | 0.00 | 0.02 | 0.00 | 54 | 981.4 |
| 20260906105130 | 64 | 249 | 3.0 | 5.0 | 0.00 | 0.02 | 0.00 | 54 | 981.5 |
| 20260906104230 | 64 | 241 | 3.0 | 4.0 | 0.00 | 0.02 | 0.00 | 54 | 981.6 |
| 20260906103330 | 64 | 203 | 3.0 | 4.0 | 0.00 | 0.02 | 0.00 | 54 | 981.6 |
| 20260906102431 | 64 | 219 | 3.0 | 4.0 | 0.00 | 0.02 | 0.00 | 54 | 981.5 |
| 20260906101530 | 64 | 251 | 4.0 | 8.0 | 0.00 | 0.02 | 0.00 | 55 | 981.5 |
| 20260906100630 | 64 | 213 | 5.0 | 8.0 | 0.00 | 0.02 | 0.00 | 57 | 981.4 |
| 20260906095730 | 64 | 187 | 5.0 | 8.0 | 0.00 | 0.02 | 0.00 | 55 | 981.5 |
| 20260906094830 | 63 | 205 | 5.0 | 7.0 | 0.00 | 0.02 | 0.00 | 58 | 981.5 |
| 20260906092130 | 62 | 233 | 5.0 | 8.0 | 0.00 | 0.02 | 0.00 | 60 | 981.3 |
| 20260906085431 | 62 | 253 | 4.0 | 7.0 | 0.00 | 0.02 | 0.00 | 60 | 981.2 |
| 20260906084530 | 62 | 235 | 4.0 | 6.0 | 0.00 | 0.02 | 0.00 | 60 | 981.1 |
| 20260906083630 | 61 | 279 | 4.0 | 7.0 | 0.00 | 0.02 | 0.00 | 62 | 981.1 |
| 20260906082730 | 60 | 233 | 5.0 | 7.0 | 0.00 | 0.02 | 0.00 | 63 | 981.1 |
| 20260906081830 | 60 | 260 | 4.0 | 6.0 | 0.00 | 0.02 | 0.00 | 64 | 981.0 |
| 20260906080931 | 60 | 270 | 5.0 | 5.0 | 0.00 | 0.02 | 0.00 | 65 | 981.1 |
| 20260906074230 | 59 | 203 | 3.0 | 5.0 | 0.00 | 0.02 | 0.00 | 67 | 980.9 |
| 20260906073330 | 58 | 218 | 4.0 | 5.0 | 0.00 | 0.02 | 0.00 | 68 | 980.7 |
| 20260906071530 | 56 | 239 | 5.0 | 6.0 | 0.00 | 0.02 | 0.00 | 69 | 980.6 |
| 20260906070631 | 56 | 276 | 5.0 | 6.0 | 0.00 | 0.02 | 0.00 | 69 | 980.5 |
| 20260906065730 | 56 | 230 | 4.0 | 6.0 | 0.00 | 0.02 | 0.00 | 69 | 980.4 |
| 20260906064830 | 55 | 221 | 4.0 | 6.0 | 0.00 | 0.02 | 0.00 | 69 | 980.3 |
| 20260906063931 | 55 | 236 | 4.0 | 4.0 | 0.00 | 0.02 | 0.00 | 71 | 980.3 |
| 20260906063030 | 55 | 193 | 3.0 | 4.0 | 0.00 | 0.02 | 0.00 | 71 | 980.0 |
| 20260906062130 | 53 | 198 | 4.0 | 5.0 | 0.00 | 0.02 | 0.00 | 72 | 980.1 |
| 20260906061230 | 52 | 192 | 5.0 | 6.0 | 0.00 | 0.02 | 0.00 | 75 | 980.2 |
| 20260906060330 | 51 | 207 | 5.0 | 7.0 | 0.00 | 0.02 | 0.00 | 75 | 980.1 |
| 20260906055431 | 51 | 197 | 4.0 | 4.0 | 0.00 | 0.02 | 0.00 | 76 | 980.1 |
| 20260906054530 | 51 | 215 | 4.0 | 5.0 | 0.00 | 0.02 | 0.00 | 76 | 980.0 |
| 20260906051830 | 48 | 198 | 5.0 | 7.0 | 0.00 | 0.02 | 0.00 | 80 | 979.7 |
| 20260906050930 | 48 | 160 | 4.0 | 4.0 | 0.00 | 0.02 | 0.00 | 83 | 979.8 |
| 20260906050030 | 47 | 195 | 4.0 | 6.0 | 0.00 | 0.02 | 0.00 | 85 | 979.7 |
| 20260906045130 | 45 | 177 | 3.0 | 4.0 | 0.00 | 0.02 | 0.00 | 90 | 979.5 |
| 20260906044230 | 44 | 191 | 3.0 | 4.0 | 0.00 | 0.02 | 0.00 | 90 | 979.3 |
| 20260906042431 | 44 | 197 | 4.0 | 6.0 | 0.00 | 0.02 | 0.00 | 89 | 979.3 |
| 20260906041530 | 44 | 204 | 3.0 | 3.0 | 0.00 | 0.02 | 0.00 | 88 | 979.1 |
| 20260906040630 | 45 | 203 | 3.0 | 4.0 | 0.00 | 0.02 | 0.00 | 85 | 979.0 |
| 20260906034830 | 46 | 92 | 3.0 | 4.0 | 0.00 | 0.02 | 0.00 | 85 | 978.8 |
| 20260906033931 | 46 | 90 | 3.0 | 4.0 | 0.00 | 0.02 | 0.00 | 86 | 978.6 |
| 20260906033030 | 46 | 103 | 3.0 | 4.0 | 0.00 | 0.02 | 0.00 | 87 | 978.5 |
| 20260906032130 | 45 | 146 | 2.0 | 3.0 | 0.00 | 0.02 | 0.00 | 89 | 978.6 |
| 20260906031230 | 45 | 203 | 2.0 | 2.0 | 0.00 | 0.02 | 0.00 | 90 | 978.4 |
| 20260906025430 | 45 | 202 | 1.0 | 2.0 | 0.00 | 0.02 | 0.00 | 89 | 978.3 |
| 20260906024530 | 45 | 216 | 1.0 | 2.0 | 0.00 | 0.02 | 0.00 | 90 | 978.0 |
| 20260906021830 | 45 | 197 | 3.0 | 3.0 | 0.00 | 0.02 | 0.00 | 89 | 977.8 |
| 20260906020930 | 45 | 186 | 2.0 | 3.0 | 0.00 | 0.02 | 0.00 | 89 | 977.7 |
| 20260906020030 | 45 | 177 | 3.0 | 3.0 | 0.00 | 0.02 | 0.00 | 88 | 977.7 |
| 20260906015130 | 45 | 213 | 2.0 | 3.0 | 0.00 | 0.02 | 0.00 | 87 | 977.4 |
| 20260906014230 | 46 | 206 | 3.0 | 4.0 | 0.00 | 0.02 | 0.00 | 84 | 977.4 |
| 20260906013330 | 47 | 135 | 2.0 | 3.0 | 0.00 | 0.02 | 0.00 | 83 | 977.2 |
| 20260906012430 | 47 | 117 | 3.0 | 4.0 | 0.00 | 0.02 | 0.00 | 84 | 977.0 |
| 20260906011530 | 46 | 142 | 2.0 | 4.0 | 0.00 | 0.02 | 0.00 | 86 | 977.0 |
| 20260906010630 | 46 | 24 | 1.0 | 2.0 | 0.00 | 0.02 | 0.00 | 85 | 976.8 |
| 20260906005730 | 46 | 101 | 2.0 | 3.0 | 0.00 | 0.02 | 0.00 | 85 | 977.0 |
| 20260906004830 | 46 | 117 | 2.0 | 3.0 | 0.00 | 0.02 | 0.00 | 86 | 976.6 |
| 20260906003931 | 46 | 99 | 3.0 | 4.0 | 0.00 | 0.02 | 0.00 | 86 | 976.5 |
| 20260906003030 | 46 | 89 | 2.0 | 3.0 | 0.00 | 0.02 | 0.00 | 85 | 976.5 |
| 20260906002130 | 46 | 117 | 2.0 | 3.0 | 0.00 | 0.02 | 0.00 | 85 | 976.3 |
| 20260906001230 | 46 | 110 | 2.0 | 3.0 | 0.00 | 0.02 | 0.00 | 84 | 976.1 |
| 20260906000330 | 46 | 98 | 2.0 | 4.0 | 0.00 | 0.02 | 0.00 | 84 | 976.1 |
| 20260905233630 | 47 | 90 | 4.0 | 5.0 | 0.00 | 0.02 | 0.00 | 84 | 975.9 |
| 20260905231830 | 47 | 97 | 4.0 | 5.0 | 0.00 | 0.02 | 0.00 | 85 | 975.8 |
| 20260905230930 | 47 | 58 | 4.0 | 5.0 | 0.00 | 0.02 | 0.00 | 85 | 975.7 |
| 20260905225130 | 47 | 92 | 4.0 | 5.0 | 0.00 | 0.02 | 0.00 | 85 | 975.6 |
| 20260905224230 | 47 | 87 | 4.0 | 4.0 | 0.00 | 0.02 | 0.00 | 84 | 975.4 |
| 20260905223330 | 47 | 100 | 4.0 | 4.0 | 0.00 | 0.02 | 0.00 | 84 | 975.5 |
| 20260905222431 | 47 | 103 | 4.0 | 5.0 | 0.00 | 0.02 | 0.00 | 84 | 975.3 |
| 20260905221530 | 47 | 92 | 3.0 | 4.0 | 0.00 | 0.02 | 0.00 | 84 | 975.2 |
| 20260905220630 | 48 | 90 | 4.0 | 5.0 | 0.00 | 0.02 | 0.00 | 84 | 974.9 |
| 20260905215730 | 48 | 97 | 3.0 | 4.0 | 0.00 | 0.02 | 0.02 | 84 | 974.9 |
| 20260905213930 | 48 | 84 | 3.0 | 4.0 | 0.00 | 0.02 | 0.02 | 83 | 974.7 |
| 20260905212130 | 49 | 94 | 3.0 | 4.0 | 0.00 | 0.02 | 0.02 | 83 | 974.4 |
| 20260905211231 | 49 | 90 | 2.0 | 2.0 | 0.00 | 0.02 | 0.02 | 82 | 974.3 |
| 20260905210330 | 50 | 92 | 2.0 | 3.0 | 0.00 | 0.02 | 0.02 | 82 | 974.1 |
| 20260905205430 | 50 | 91 | 3.0 | 4.0 | 0.00 | 0.02 | 0.02 | 82 | 974.0 |
| 20260905204530 | 51 | 98 | 3.0 | 4.0 | 0.00 | 0.02 | 0.02 | 82 | 973.9 |
| 20260905203630 | 51 | 93 | 2.0 | 3.0 | 0.00 | 0.02 | 0.02 | 82 | 973.9 |
| 20260905202730 | 50 | 83 | 2.0 | 3.0 | 0.00 | 0.02 | 0.02 | 81 | 973.9 |
| 20260905201830 | 51 | 71 | 2.0 | 4.0 | 0.00 | 0.02 | 0.02 | 81 | 973.6 |
| 20260905195130 | 52 | 97 | 2.0 | 4.0 | 0.00 | 0.02 | 0.02 | 80 | 973.3 |
| 20260905194230 | 52 | 98 | 2.0 | 3.0 | 0.00 | 0.02 | 0.02 | 79 | 973.2 |
| 20260905193330 | 52 | 127 | 3.0 | 3.0 | 0.00 | 0.02 | 0.02 | 78 | 973.2 |
| 20260905192430 | 52 | 112 | 2.0 | 2.0 | 0.00 | 0.02 | 0.02 | 78 | 972.9 |
| 20260905191530 | 52 | 115 | 1.0 | 2.0 | 0.00 | 0.02 | 0.02 | 77 | 973.0 |
| 20260905185730 | 53 | 135 | 1.0 | 2.0 | 0.00 | 0.02 | 0.02 | 74 | 972.9 |
| 20260905184830 | 53 | 131 | 2.0 | 2.0 | 0.00 | 0.02 | 0.02 | 74 | 972.9 |
| 20260905183931 | 53 | 133 | 3.0 | 3.0 | 0.00 | 0.02 | 0.02 | 74 | 972.7 |
| 20260905183030 | 53 | 135 | 3.0 | 3.0 | 0.00 | 0.02 | 0.02 | 75 | 972.5 |
| 20260905182130 | 53 | 139 | 3.0 | 4.0 | 0.00 | 0.02 | 0.02 | 75 | 972.2 |
| 20260905181230 | 54 | 150 | 4.0 | 4.0 | 0.00 | 0.02 | 0.02 | 74 | 972.1 |
| 20260905175431 | 54 | 123 | 3.0 | 4.0 | 0.00 | 0.02 | 0.02 | 74 | 972.0 |
| 20260905174530 | 55 | 137 | 3.0 | 4.0 | 0.00 | 0.02 | 0.02 | 72 | 971.8 |
| 20260905173630 | 56 | 110 | 4.0 | 8.0 | 0.00 | 0.02 | 0.02 | 70 | 971.7 |
| 20260905172730 | 56 | 153 | 4.0 | 6.0 | 0.00 | 0.02 | 0.02 | 70 | 971.5 |
| 20260905171830 | 56 | 178 | 4.0 | 4.0 | 0.00 | 0.02 | 0.02 | 70 | 971.4 |
| 20260905170930 | 57 | 161 | 4.0 | 4.0 | 0.00 | 0.02 | 0.02 | 69 | 971.3 |
| 20260905170030 | 57 | 162 | 5.0 | 7.0 | 0.00 | 0.02 | 0.02 | 67 | 971.2 |
| 20260905165131 | 58 | 143 | 3.0 | 5.0 | 0.00 | 0.02 | 0.02 | 66 | 971.1 |
| 20260905164231 | 60 | 127 | 5.0 | 8.0 | 0.00 | 0.02 | 0.02 | 63 | 971.0 |
| 20260905163330 | 61 | 119 | 2.0 | 4.0 | 0.00 | 0.02 | 0.02 | 63 | 970.8 |
| 20260905162430 | 61 | 293 | 2.0 | 6.0 | 0.00 | 0.02 | 0.02 | 62 | 970.6 |
| 20260905161530 | 60 | 304 | 3.0 | 6.0 | 0.00 | 0.02 | 0.02 | 65 | 970.4 |
| 20260905160630 | 61 | 225 | 1.0 | 2.0 | 0.00 | 0.02 | 0.02 | 62 | 970.3 |
| 20260905154830 | 61 | 221 | 1.0 | 2.0 | 0.00 | 0.02 | 0.02 | 62 | 970.2 |
| 20260905153931 | 61 | 239 | 1.0 | 2.0 | 0.00 | 0.02 | 0.02 | 62 | 970.1 |
| 20260905153030 | 62 | 236 | 2.0 | 3.0 | 0.00 | 0.02 | 0.02 | 61 | 969.9 |
| 20260905152130 | 62 | 276 | 2.0 | 3.0 | 0.00 | 0.02 | 0.02 | 60 | 969.9 |
| 20260905151230 | 61 | 280 | 2.0 | 3.0 | 0.00 | 0.02 | 0.02 | 61 | 969.8 |
| 20260905150330 | 60 | 296 | 2.0 | 2.0 | 0.00 | 0.02 | 0.02 | 61 | 969.8 |
| 20260905144530 | 61 | 359 | 3.0 | 5.0 | 0.00 | 0.02 | 0.02 | 60 | 969.8 |
| 20260905143630 | 62 | 1 | 5.0 | 7.0 | 0.00 | 0.02 | 0.02 | 58 | 969.6 |
| 20260905142730 | 63 | 41 | 5.0 | 7.0 | 0.00 | 0.02 | 0.02 | 55 | 969.5 |
| 20260905141830 | 65 | 347 | 4.0 | 5.0 | 0.00 | 0.02 | 0.02 | 52 | 969.3 |
| 20260905140931 | 66 | 298 | 5.0 | 7.0 | 0.00 | 0.02 | 0.02 | 50 | 969.1 |
| 20260905140030 | 68 | 253 | 4.0 | 5.0 | 0.00 | 0.02 | 0.02 | 49 | 969.0 |
| 20260905134230 | 65 | 214 | 4.0 | 5.0 | 0.00 | 0.02 | 0.02 | 54 | 968.7 |
| 20260905133330 | 64 | 209 | 4.0 | 6.0 | 0.00 | 0.02 | 0.02 | 56 | 968.8 |
| 20260905132431 | 64 | 257 | 4.0 | 5.0 | 0.00 | 0.02 | 0.02 | 59 | 968.8 |
| 20260905131530 | 61 | 211 | 4.0 | 4.0 | 0.00 | 0.02 | 0.02 | 66 | 968.7 |